This demonstration page uses our WeatherBlox Daily Observations layout. Learn more.

Left ArrowRight Arrow

41.12389, -100.76542

Hourly Observations for August 25, 2019

Temp ( °F °C ) Dew Point ( °F °C ) Humidity (%) Winds ( mph kmh ) Pressure ( in mb ) Visibility ( mi km ) Precip ( " mm )
12:00 am 00:00 Partly Cloudy 64 17.8 62 16.7 93 93 SE 5 7 29.85 1011 10 16 0.00 0.00
12:40 am 00:40 Mostly Cloudy 64 17.8 61 16.1 90 90 SSE 5 7 29.86 1011 10 16 0.00 0.00
12:53 am 00:53 Cloudy 64 17.8 61 16.1 90 90 SSE 6 9 29.89 1012 10 16 0.00 0.00
1:40 am 01:40 Cloudy 64 17.8 60 15.6 87 87 SE 8 13 29.86 1011 10 16 0.00 0.00
1:53 am 01:53 Cloudy 64 17.8 61 16.1 90 90 SE 9 15 29.86 1011 10 16 0.00 0.00
2:16 am 02:16 Partly Cloudy 64 17.8 60 15.6 87 87 SSE 7 11 29.85 1011 10 16 0.00 0.00
2:53 am 02:53 Mostly Clear 62 16.7 59 15 90 90 ESE 5 7 29.84 1011 10 16 0.00 0.00
3:41 am 03:41 Mostly Clear 61 16.1 59 15 93 93 ESE 6 9 29.84 1011 10 16 0.00 0.00
3:53 am 03:53 Partly Cloudy 61 16.1 59 15 93 93 ESE 3 6 29.84 1011 10 16 0.00 0.00
4:04 am 04:04 Mostly Cloudy 60 15.6 59 15 96 96 ESE 6 9 29.84 1010 10 16 0.00 0.00
4:53 am 04:53 Cloudy 62 16.7 60 15.6 93 93 SE 7 11 29.82 1010 10 16 0.00 0.00
5:07 am 05:07 Cloudy 62 16.7 60 15.6 93 93 SE 6 9 29.81 1010 10 16 0.00 0.00
5:53 am 05:53 Cloudy 62 16.7 60 15.6 93 93 SSE 7 11 29.81 1010 10 16 0.00 0.00
6:53 am 06:53 Cloudy 61 16.1 60 15.6 97 97 SE 9 15 29.82 1010 8 13 0.00 0.00
7:07 am 07:07 Cloudy 61 16.1 59 15 93 93 SE 8 13 29.81 1009 10 16 0.00 0.00
7:53 am 07:53 Cloudy 62 16.7 59 15 90 90 S 6 9 29.83 1010 10 16 0.00 0.00
8:53 am 08:53 Cloudy 63 17.2 60 15.6 90 90 S 6 9 29.85 1011 10 16 0.00 0.00
9:37 am 09:37 Cloudy 64 17.8 60 15.6 87 87 SSE 7 11 29.81 1010 10 16 0.00 0.00
9:51 am 09:51 Cloudy 64 18 61 16 88 88 S 6 9 29.80 1009 10 16 0.00 0.00
9:53 am 09:53 Cloudy 64 17.8 60 15.6 87 87 S 8 13 29.84 1011 10 16 0.00 0.00
10:39 am 10:39 Cloudy 66 18.9 61 16.1 84 84 S 9 15 29.79 1009 10 16 0.00 0.00
10:53 am 10:53 Cloudy 67 19.4 62 16.7 84 84 S 9 15 29.83 1010 10 16 0.00 0.00
11:12 am 11:12 Cloudy 69 20.6 63 17.2 81 81 S 9 15 29.78 1008 10 16 0.00 0.00
11:25 am 11:25 Cloudy 70 21.1 63 17.2 79 79 S 9 15 29.76 1008 10 16 0.00 0.00
11:53 am 11:53 Cloudy 71 21.7 64 17.8 79 79 SSW 9 15 29.82 1010 10 16 0.00 0.00
12:53 pm 12:53 Cloudy 73 22.8 65 18.3 76 76 S 7 11 29.82 1010 10 16 0.00 0.00
1:53 pm 13:53 Cloudy 75 23.9 67 19.4 76 76 S 8 13 29.79 1009 10 16 0.00 0.00
2:04 pm 14:04 Cloudy 76 24.4 67 19.4 74 74 S 10 17 29.71 1006 10 16 0.00 0.00
2:53 pm 14:53 Cloudy 77 25 68 20 74 74 SSW 8 13 29.77 1008 10 16 0.00 0.00
3:26 pm 15:26 Cloudy 78 25.6 67 19.4 69 69 S 9 15 29.67 1005 10 16 0.00 0.00
3:53 pm 15:53 Mostly Cloudy 79 26.1 67 19.4 67 67 S 9 15 29.74 1007 10 16 0.00 0.00
4:53 pm 16:53 Cloudy 78 25.6 68 20 71 71 S 8 13 29.72 1007 10 16 0.00 0.00
5:53 pm 17:53 Mostly Cloudy 78 25.6 67 19.4 69 69 S 8 13 29.71 1006 10 16 0.00 0.00
6:53 pm 18:53 Sunny 76 24.4 66 18.9 72 72 SSW 8 13 29.71 1006 10 16 0.00 0.00
7:53 pm 19:53 Sunny 74 23.3 66 18.9 76 76 S 8 13 29.70 1006 10 16 0.00 0.00
8:53 pm 20:53 Clear 69 20.6 65 18.3 87 87 SSE 6 9 29.72 1006 10 16 0.00 0.00
9:53 pm 21:53 Clear 67 19.4 65 18.3 93 93 SE 7 11 29.72 1007 10 16 0.00 0.00
10:53 pm 22:53 Clear 69 20.6 67 19.4 93 93 SSE 8 13 29.71 1006 10 16 0.00 0.00
11:19 pm 23:19 Mostly Cloudy 69 20.6 67 19.4 93 93 SE 8 13 29.66 1004 10 16 0.00 0.00
11:53 pm 23:53 Cloudy 70 21.1 68 20 93 93 SSE 9 15 29.68 1005 10 16 0.00 0.00

Powered by AerisWeather